Time,TemperatureF,DewpointF,PressureIn,WindDirection,WindDirectionDegrees,WindSpeedMPH,WindSpeedGustMPH,Humidity,HourlyPrecipIn,Conditions,Clouds,dailyrainin,SolarRadiationWatts/m^2,SoftwareType,DateUTC
2013-03-19 00:01:00,70.4,67.0,29.94,North,360,0.0,-999.0,90,-99.99,,,0.06,0,weatherlink.com 1.10,2013-03-19 04:01:00,
2013-03-19 00:16:00,70.6,68.0,29.94,NNE,30,0.0,-999.0,90,-99.99,,,0.06,0,weatherlink.com 1.10,2013-03-19 04:16:00,
2013-03-19 00:31:00,70.8,68.0,29.92,NNE,30,0.0,-999.0,90,-99.99,,,0.06,0,weatherlink.com 1.10,2013-03-19 04:31:00,
2013-03-19 00:46:00,70.8,68.0,29.92,NNE,30,0.0,-999.0,90,-99.99,,,0.00,0,weatherlink.com 1.10,2013-03-19 04:46:00,
2013-03-19 01:01:00,70.9,68.0,29.92,NNE,30,0.0,-999.0,90,-99.99,,,0.00,0,weatherlink.com 1.10,2013-03-19 05:01:00,
2013-03-19 01:16:00,70.9,68.0,29.91,NNE,30,0.0,-999.0,90,-99.99,,,0.00,0,weatherlink.com 1.10,2013-03-19 05:16:00,
2013-03-19 01:31:00,71.1,68.0,29.91,NNE,30,0.0,-999.0,91,-99.99,,,0.00,0,weatherlink.com 1.10,2013-03-19 05:31:00,
2013-03-19 01:46:00,71.5,69.0,29.90,NNE,30,0.0,-999.0,91,-99.99,,,0.00,0,weatherlink.com 1.10,2013-03-19 05:46:00,
2013-03-19 02:01:00,71.6,69.0,29.90,NNE,30,0.0,-999.0,91,-99.99,,,0.00,0,weatherlink.com 1.10,2013-03-19 06:01:00,
2013-03-19 02:16:00,71.5,69.0,29.89,NW,324,0.0,-999.0,91,-99.99,,,0.00,0,weatherlink.com 1.10,2013-03-19 06:16:00,
2013-03-19 02:31:00,71.3,69.0,29.90,WNW,302,4.0,-999.0,91,-99.99,,,0.00,0,weatherlink.com 1.10,2013-03-19 06:31:00,
2013-03-19 02:46:00,71.3,69.0,29.90,WNW,301,0.0,-999.0,91,-99.99,,,0.00,0,weatherlink.com 1.10,2013-03-19 06:46:00,
2013-03-19 03:01:00,71.5,69.0,29.90,West,279,0.0,-999.0,91,-99.99,,,0.00,0,weatherlink.com 1.10,2013-03-19 07:01:00,
2013-03-19 03:16:00,71.6,69.0,29.91,West,278,0.0,-999.0,91,-99.99,,,0.00,0,weatherlink.com 1.10,2013-03-19 07:16:00,
2013-03-19 03:31:00,71.6,69.0,29.90,West,270,5.0,-999.0,92,-99.99,,,0.01,0,weatherlink.com 1.10,2013-03-19 07:31:00,
2013-03-19 03:46:00,72.0,70.0,29.88,SSW,194,3.0,-999.0,92,-99.99,,,0.01,0,weatherlink.com 1.10,2013-03-19 07:46:00,
2013-03-19 04:01:00,72.1,70.0,29.87,South,191,0.0,-999.0,92,-99.99,,,0.02,0,weatherlink.com 1.10,2013-03-19 08:01:00,
2013-03-19 04:16:00,72.3,70.0,29.87,SSE,167,3.0,-999.0,92,-99.99,,,0.02,0,weatherlink.com 1.10,2013-03-19 08:16:00,
2013-03-19 04:31:00,72.5,70.0,29.84,South,179,6.0,-999.0,92,-99.99,,,0.03,0,weatherlink.com 1.10,2013-03-19 08:31:00,
2013-03-19 04:46:00,72.7,71.0,29.83,South,171,5.0,-999.0,93,-99.99,,,0.03,0,weatherlink.com 1.10,2013-03-19 08:46:00,
2013-03-19 05:01:00,72.5,70.0,29.82,SSE,161,10.0,-999.0,93,-99.99,,,0.03,0,weatherlink.com 1.10,2013-03-19 09:01:00,
2013-03-19 05:16:00,72.5,70.0,29.81,South,181,6.0,-999.0,93,-99.99,,,0.03,0,weatherlink.com 1.10,2013-03-19 09:16:00,
2013-03-19 05:31:00,72.3,70.0,29.81,SSE,153,10.0,-999.0,93,-99.99,,,0.03,0,weatherlink.com 1.10,2013-03-19 09:31:00,
2013-03-19 05:46:00,72.3,70.0,29.81,SSW,213,6.0,-999.0,93,-99.99,,,0.03,0,weatherlink.com 1.10,2013-03-19 09:46:00,
2013-03-19 06:01:00,71.3,69.0,29.83,South,187,10.0,-999.0,93,-99.99,,,0.03,0,weatherlink.com 1.10,2013-03-19 10:01:00,
2013-03-19 06:16:00,71.1,69.0,29.85,SSW,194,2.0,-999.0,93,-99.99,,,0.03,0,weatherlink.com 1.10,2013-03-19 10:16:00,
2013-03-19 06:31:00,71.1,69.0,29.88,WNW,282,2.0,-999.0,93,-99.99,,,0.03,0,weatherlink.com 1.10,2013-03-19 10:31:00,
2013-03-19 06:46:00,70.8,68.0,29.89,WNW,287,3.0,-999.0,92,-99.99,,,0.03,0,weatherlink.com 1.10,2013-03-19 10:46:00,
2013-03-19 07:01:00,70.8,68.0,29.91,West,265,0.0,-999.0,92,-99.99,,,0.03,0,weatherlink.com 1.10,2013-03-19 11:01:00,
2013-03-19 07:16:00,70.8,68.0,29.90,West,265,0.0,-999.0,92,-99.99,,,0.03,0,weatherlink.com 1.10,2013-03-19 11:16:00,
2013-03-19 07:31:00,70.8,68.0,29.91,WNW,293,0.0,-999.0,92,-99.99,,,0.03,0,weatherlink.com 1.10,2013-03-19 11:31:00,
2013-03-19 07:46:00,70.6,68.0,29.91,WNW,295,0.0,-999.0,92,-99.99,,,0.03,9,weatherlink.com 1.10,2013-03-19 11:46:00,
2013-03-19 08:01:00,70.6,68.0,29.91,West,270,4.0,-999.0,91,-99.99,,,0.03,18,weatherlink.com 1.10,2013-03-19 12:01:00,
2013-03-19 08:16:00,70.6,69.0,29.93,West,273,1.0,-999.0,95,-99.99,,,0.03,25,weatherlink.com 1.10,2013-03-19 12:16:00,
2013-03-19 08:31:00,70.8,68.0,29.93,West,278,0.0,-999.0,91,-99.99,,,0.03,79,weatherlink.com 1.10,2013-03-19 12:31:00,
2013-03-19 08:46:00,70.9,68.0,29.93,NW,311,5.0,-999.0,91,-99.99,,,0.03,88,weatherlink.com 1.10,2013-03-19 12:46:00,
2013-03-19 09:01:00,70.9,68.0,29.93,West,277,1.0,-999.0,91,-99.99,,,0.03,53,weatherlink.com 1.10,2013-03-19 13:01:00,
2013-03-19 09:16:00,70.8,68.0,29.94,WNW,292,0.0,-999.0,91,-99.99,,,0.03,42,weatherlink.com 1.10,2013-03-19 13:16:00,
2013-03-19 09:31:00,70.8,68.0,29.93,WSW,243,0.0,-999.0,90,-99.99,,,0.03,56,weatherlink.com 1.10,2013-03-19 13:31:00,
2013-03-19 09:46:00,70.9,68.0,29.91,WSW,243,0.0,-999.0,90,-99.99,,,0.03,46,weatherlink.com 1.10,2013-03-19 13:46:00,
2013-03-19 10:01:00,71.1,68.0,29.93,WSW,256,1.0,-999.0,90,-99.99,,,0.03,153,weatherlink.com 1.10,2013-03-19 14:01:00,
2013-03-19 10:16:00,71.3,68.0,29.93,SW,225,0.0,-999.0,89,-99.99,,,0.03,128,weatherlink.com 1.10,2013-03-19 14:16:00,
2013-03-19 10:31:00,72.0,68.0,29.91,SW,225,0.0,-999.0,88,-99.99,,,0.03,111,weatherlink.com 1.10,2013-03-19 14:31:00,
2013-03-19 10:46:00,72.1,68.0,29.93,WSW,256,3.0,-999.0,87,-99.99,,,0.03,127,weatherlink.com 1.10,2013-03-19 14:46:00,
2013-03-19 11:01:00,72.5,69.0,29.95,NW,308,0.0,-999.0,87,-99.99,,,0.03,93,weatherlink.com 1.10,2013-03-19 15:01:00,
2013-03-19 11:16:00,72.5,69.0,29.95,WNW,301,2.0,-999.0,87,-99.99,,,0.03,227,weatherlink.com 1.10,2013-03-19 15:16:00,
2013-03-19 11:31:00,72.5,68.0,29.94,WNW,300,0.0,-999.0,86,-99.99,,,0.03,229,weatherlink.com 1.10,2013-03-19 15:31:00,
2013-03-19 11:46:00,73.5,68.0,29.95,WNW,300,3.0,-999.0,84,-99.99,,,0.03,292,weatherlink.com 1.10,2013-03-19 15:46:00,
2013-03-19 12:01:00,74.0,69.0,29.96,West,265,0.0,-999.0,83,-99.99,,,0.03,315,weatherlink.com 1.10,2013-03-19 16:01:00,
2013-03-19 12:16:00,74.0,68.0,29.96,West,265,0.0,-999.0,81,-99.99,,,0.03,429,weatherlink.com 1.10,2013-03-19 16:16:00,
2013-03-19 12:31:00,75.4,68.0,29.96,WNW,297,1.0,-999.0,78,-99.99,,,0.04,559,weatherlink.com 1.10,2013-03-19 16:31:00,
2013-03-19 12:46:00,76.3,69.0,29.97,West,263,3.0,-999.0,77,-99.99,,,0.04,422,weatherlink.com 1.10,2013-03-19 16:46:00,
2013-03-19 13:01:00,76.3,67.0,29.97,West,280,2.0,-999.0,73,-99.99,,,0.04,424,weatherlink.com 1.10,2013-03-19 17:01:00,
2013-03-19 13:16:00,77.4,67.0,29.96,West,270,2.0,-999.0,71,-99.99,,,0.04,896,weatherlink.com 1.10,2013-03-19 17:16:00,
2013-03-19 13:31:00,77.6,66.0,29.95,West,263,4.0,-999.0,68,-99.99,,,0.04,657,weatherlink.com 1.10,2013-03-19 17:31:00,
2013-03-19 13:46:00,78.5,67.0,29.94,West,279,0.0,-999.0,67,-99.99,,,0.04,471,weatherlink.com 1.10,2013-03-19 17:46:00,
2013-03-19 14:01:00,78.1,65.0,29.94,WSW,257,4.0,-999.0,65,-99.99,,,0.04,308,weatherlink.com 1.10,2013-03-19 18:01:00,
2013-03-19 15:16:00,78.8,66.0,29.90,WNW,285,4.0,-999.0,65,-99.99,,,0.04,265,weatherlink.com 1.10,2013-03-19 19:16:00,
2013-03-19 15:31:00,79.0,65.0,29.90,WNW,296,0.0,-999.0,62,-99.99,,,0.04,418,weatherlink.com 1.10,2013-03-19 19:31:00,
2013-03-19 16:01:00,77.6,68.0,29.89,WSW,258,0.0,-999.0,72,-99.99,,,0.04,299,weatherlink.com 1.10,2013-03-19 20:01:00,
2013-03-19 16:16:00,77.6,69.0,29.89,SW,233,0.0,-999.0,74,-99.99,,,0.04,209,weatherlink.com 1.10,2013-03-19 20:16:00,
2013-03-19 16:31:00,76.8,68.0,29.89,NE,49,4.0,-999.0,74,-99.99,,,0.04,155,weatherlink.com 1.10,2013-03-19 20:31:00,
2013-03-19 16:46:00,76.8,69.0,29.89,ESE,123,0.0,-999.0,76,-99.99,,,0.04,174,weatherlink.com 1.10,2013-03-19 20:46:00,
2013-03-19 17:01:00,76.7,69.0,29.88,SSE,153,0.0,-999.0,76,-99.99,,,0.04,174,weatherlink.com 1.10,2013-03-19 21:01:00,
2013-03-19 17:16:00,76.3,69.0,29.87,SSE,148,2.0,-999.0,78,-99.99,,,0.04,241,weatherlink.com 1.10,2013-03-19 21:16:00,
2013-03-19 17:31:00,75.6,68.0,29.86,SSE,153,1.0,-999.0,78,-99.99,,,0.04,174,weatherlink.com 1.10,2013-03-19 21:31:00,
2013-03-19 17:46:00,76.3,69.0,29.86,SSE,167,6.0,-999.0,77,-99.99,,,0.04,420,weatherlink.com 1.10,2013-03-19 21:46:00,
2013-03-19 18:01:00,76.5,68.0,29.86,SSE,148,9.0,-999.0,76,-99.99,,,0.04,353,weatherlink.com 1.10,2013-03-19 22:01:00,
2013-03-19 18:31:00,76.0,68.0,29.85,SE,146,4.0,-999.0,77,-99.99,,,0.04,127,weatherlink.com 1.10,2013-03-19 22:31:00,
2013-03-19 18:46:00,75.8,68.0,29.85,SSE,152,2.0,-999.0,77,-99.99,,,0.04,135,weatherlink.com 1.10,2013-03-19 22:46:00,
2013-03-19 19:01:00,75.8,69.0,29.86,ESE,114,0.0,-999.0,78,-99.99,,,0.04,67,weatherlink.com 1.10,2013-03-19 23:01:00,
2013-03-19 19:16:00,75.6,68.0,29.87,SSE,151,0.0,-999.0,78,-99.99,,,0.04,18,weatherlink.com 1.10,2013-03-19 23:16:00,
2013-03-19 19:31:00,75.3,68.0,29.88,ESE,122,0.0,-999.0,78,-99.99,,,0.04,5,weatherlink.com 1.10,2013-03-19 23:31:00,
2013-03-19 19:46:00,74.9,68.0,29.88,ESE,122,0.0,-999.0,79,-99.99,,,0.04,0,weatherlink.com 1.10,2013-03-19 23:46:00,
2013-03-19 20:16:00,74.0,68.0,29.89,ESE,122,0.0,-999.0,80,-99.99,,,0.04,0,weatherlink.com 1.10,2013-03-20 00:16:00,
2013-03-19 20:31:00,73.7,68.0,29.90,ESE,122,0.0,-999.0,81,-99.99,,,0.04,0,weatherlink.com 1.10,2013-03-20 00:31:00,
2013-03-19 20:46:00,73.3,67.0,29.90,ESE,122,0.0,-999.0,81,-99.99,,,0.04,0,weatherlink.com 1.10,2013-03-20 00:46:00,
2013-03-19 21:01:00,72.8,67.0,29.90,ESE,122,0.0,-999.0,82,-99.99,,,0.04,0,weatherlink.com 1.10,2013-03-20 01:01:00,
2013-03-19 21:16:00,72.7,67.0,29.90,ESE,122,0.0,-999.0,82,-99.99,,,0.04,0,weatherlink.com 1.10,2013-03-20 01:16:00,
2013-03-19 21:31:00,72.3,67.0,29.91,ESE,122,0.0,-999.0,83,-99.99,,,0.04,0,weatherlink.com 1.10,2013-03-20 01:31:00,
2013-03-19 21:46:00,72.1,67.0,29.91,ESE,122,0.0,-999.0,83,-99.99,,,0.04,0,weatherlink.com 1.10,2013-03-20 01:46:00,
2013-03-19 22:01:00,71.8,67.0,29.91,ESE,122,0.0,-999.0,84,-99.99,,,0.04,0,weatherlink.com 1.10,2013-03-20 02:01:00,
2013-03-19 22:31:00,71.5,67.0,29.91,ESE,122,0.0,-999.0,84,-99.99,,,0.04,0,weatherlink.com 1.10,2013-03-20 02:31:00,
2013-03-19 22:46:00,71.1,66.0,29.92,ESE,123,0.0,-999.0,85,-99.99,,,0.04,0,weatherlink.com 1.10,2013-03-20 02:46:00,
2013-03-19 23:01:00,70.8,66.0,29.92,ESE,123,0.0,-999.0,85,-99.99,,,0.04,0,weatherlink.com 1.10,2013-03-20 03:01:00,
2013-03-19 23:16:00,70.4,66.0,29.92,ESE,123,0.0,-999.0,85,-99.99,,,0.04,0,weatherlink.com 1.10,2013-03-20 03:16:00,
2013-03-19 23:31:00,70.1,66.0,29.92,ESE,123,0.0,-999.0,86,-99.99,,,0.04,0,weatherlink.com 1.10,2013-03-20 03:31:00,
2013-03-19 23:46:00,69.9,66.0,29.91,ESE,123,0.0,-999.0,86,-99.99,,,0.04,0,weatherlink.com 1.10,2013-03-20 03:46:00,